Location: Silent Lake
(44.9206°N, 78.0708°W)
Time: 02:40:37
(UTC-04:00)

Daily predictions for brighter satellites

Satellite Brightness Start Highest point End
(mag) Time Altitude Azimuth Time Altitude Azimuth Time Altitude Azimuth
COSMOS 2455 3.2 00:00:43 10° NNW 00:06:24 56° NE 00:06:24 56° NE
Cosmos 2074 Rocket 4.3 00:08:02 58° NE 00:08:02 58° NE 00:13:23 10° NNE
Cosmos 2333 Rocket 2.8 00:07:42 51° WNW 00:08:04 52° WNW 00:13:36 10° NNE
Meteor 1-15 Rocket 4.5 00:09:05 70° NNW 00:09:05 70° NNW 00:14:29 10° N
Terra 3.7 00:12:27 23° W 00:12:27 23° W 00:15:34 10° NW
Cosmos 2237 Rocket 2.8 00:27:23 52° NW 00:27:23 52° NW 00:32:32 10° NNE
Cosmos 2369 Rocket 3.9 00:23:32 10° N 00:28:05 24° NE 00:28:53 23° ENE
ALOS 2 4.4 00:30:26 30° N 00:30:26 30° N 00:32:44 10° N
Cosmos 2154 Rocket 4.2 01:04:53 65° N 01:04:53 65° N 01:10:05 10° N
Cosmos 2278 Rocket 4.3 01:00:32 10° WNW 01:02:46 17° W 01:02:46 17° W
Mayak 1.0 01:10:17 10° N 01:11:52 23° N 01:11:52 23° N
CENTAUR R/B 3.6 01:10:57 10° NW 01:17:32 46° W 01:17:32 46° W
Lacrosse 5 4.3 01:15:14 10° NW 01:19:02 21° N 01:22:51 10° NE
CZ-2C R/B 3.9 01:19:00 10° N 01:23:15 36° NW 01:23:15 36° NW
USA 215 3.2 01:31:04 79° N 01:31:04 79° N 01:37:19 10° NW
SL-8 Rocket 4.3 01:35:18 61° NE 01:35:18 61° NE 01:40:35 10° NNE
SL-16 R/B 3.3 01:35:36 37° NW 01:35:36 37° NW 01:40:32 10° NNE
Cosmos 2218 Rocket 4.3 01:45:01 65° NE 01:45:01 65° NE 01:50:42 10° NNE
Cosmos 1943 Rocket 2.9 01:47:40 10° NNW 01:52:18 50° NNE 01:52:18 50° NNE
ATLAS CENTAUR R/B 4.2 01:45:26 10° NW 01:50:49 31° WNW 01:50:49 31° WNW
CZ-2D R/B 4.5 02:03:08 10° ENE 02:05:14 12° E 02:05:56 12° E
Cosmos 2369 Rocket 3.1 02:06:57 10° NNW 02:10:39 40° NW 02:10:39 40° NW
Cosmos 1943 3.5 02:26:52 63° N 02:26:52 63° N 02:31:45 10° NNE
Cosmos 371 Rocket 4.4 02:30:07 42° N 02:30:07 42° N 02:33:32 10° NNE
Cosmos 2366 rocket 4.2 02:31:02 59° WNW 02:31:02 59° WNW 02:36:56 10° N
Cosmos 1727 Rocket 4.2 02:28:24 10° NNW 02:33:40 56° WNW 02:33:40 56° WNW
Cosmos 1763 Rocket 4.0 02:35:40 54° NNE 02:35:40 54° NNE 02:39:35 10° NNE
Cosmos 967 Rocket 4.3 02:43:39 84° NW 02:43:39 84° NW 02:50:00 10° NNE
Gblst 52 Del rocket 4.3 02:49:16 74° NW 02:49:26 74° NNW 02:55:08 10° ENE
Cosmos 2151 4.3 02:46:39 10° N 02:49:17 37° N 02:49:17 37° N
Cosmos 2098 Rocket 4.1 02:52:43 52° E 02:52:53 52° E 02:57:35 10° NNE
Meteor 1-16 Rocket 4.3 02:53:31 75° NW 02:53:31 75° NW 02:59:08 10° N
Cosmos 304 Rocket 4.2 02:57:18 58° NNE 02:57:18 58° NNE 03:01:11 10° NNE
Cosmos 1125 Rocket 3.6 02:55:10 10° NNW 03:00:09 74° NE 03:00:09 74° NE
Lacrosse 5 3.7 02:58:58 10° NW 03:03:24 29° NNE 03:07:50 10° E
SL-08 R/B 3.7 03:06:43 60° NNW 03:06:43 60° NNW 03:10:38 10° NNW
USA 229 DEB 3.8 02:59:41 10° NW 03:06:52 82° NE 03:14:12 10° SE
USA 229 3.8 02:59:47 10° NW 03:06:59 81° NE 03:14:18 10° SE
BREEZE M DEB (TANK) 3.9 03:10:47 33° ESE 03:10:47 33° ESE 03:14:53 10° ESE
NPP 3.5 03:03:49 10° NNE 03:09:15 85° ESE 03:09:18 85° ESE
IRS-1C 4.3 03:04:00 10° NNE 03:09:19 63° E 03:09:39 61° ESE
Cosmos 1400 Rocket 4.0 03:08:27 10° N 03:11:36 41° NE 03:11:36 41° NE
COBE Rocket 4.2 03:08:29 10° N 03:12:59 60° NW 03:12:59 60° NW
Helios 1A Rocket 4.0 03:09:57 10° N 03:12:48 42° N 03:12:48 42° N
Cosmos 1242 Rocket 4.4 03:19:50 26° N 03:19:50 26° N 03:21:34 10° N
Cosmos 841 Rocket 4.1 03:24:38 43° WNW 03:24:38 43° WNW 03:29:29 10° N
Cosmos 2123 Rocket 3.9 03:18:29 10° N 03:24:48 90° E 03:26:21 54° S
COSMOS 2406 3.4 03:25:16 55° SSE 03:26:07 62° ESE 03:31:45 10° NNE
Cosmos 1821 Rocket 3.9 03:26:21 60° WSW 03:27:08 66° W 03:33:18 10° N
Resurs 1-4 Rocket 2.2 03:23:24 10° NNE 03:28:39 66° ESE 03:29:31 56° SSE
ADEOS Rocket 2.8 03:23:26 10° N 03:28:50 59° WNW 03:29:14 57° W
IRS-P3 4.3 03:29:45 10° N 03:34:59 56° WNW 03:35:18 55° W
SL-16 R/B 2.4 03:33:19 50° S 03:35:02 78° WSW 03:41:17 10° NNW
USA 32 4.3 03:30:39 10° NNW 03:35:28 53° WNW 03:35:28 53° WNW
Cosmos 1943 Rocket 4.0 03:32:09 10° NW 03:33:47 17° WNW 03:33:47 17° WNW
Cosmos 1934 Rocket 3.9 03:37:07 58° SW 03:38:11 70° W 03:44:15 10° N
Cosmos 1633 Rocket 4.1 03:34:25 10° N 03:38:34 42° ENE 03:40:27 27° SE
Cosmos 1908 3.8 03:39:45 54° N 03:39:45 54° N 03:42:48 10° N
NOSS 3-1 (C) 4.2 03:33:00 10° NW 03:40:28 72° NE 03:48:48 10° SE
Cosmos 1656 Rocket 4.0 03:35:00 10° NW 03:39:55 48° W 03:39:55 48° W
ARIANE 5 R/B 2.7 03:35:25 10° NNE 03:40:40 71° ESE 03:41:55 51° SSE
Cosmos 1300 4.0 03:43:27 31° ESE 03:44:08 34° E 03:47:38 10° NNE
CZ-2D R/B 2.0 03:40:40 10° NNE 03:46:05 90° NNW 03:47:15 57° SSW
Meteor 2-1 Rocket 4.3 03:45:58 52° WSW 03:46:36 55° WNW 03:52:02 10° N
Cosmos 1605 Rocket 4.0 03:53:59 44° SSW 03:56:10 74° W 04:02:36 10° N
SL-27 R/B 2.8 03:58:50 60° E 03:58:50 60° E 04:02:01 10° NNE
MOS 1 Rocket 3.1 04:02:13 10° N 04:06:32 69° WNW 04:07:17 56° SW
Cosmos 2221 3.1 04:07:31 39° WNW 04:07:31 39° WNW 04:11:32 10° N
IRS-1D 3.7 04:04:00 10° N 04:09:04 59° WNW 04:10:29 43° SW
Cosmos 2082 Rocket 4.0 04:07:55 10° SSE 04:12:27 26° ESE 04:17:00 10° NE
Cosmos 1666 Rocket 3.5 04:09:01 10° NNW 04:13:27 68° W 04:14:34 47° SSW
Cosmos 540 Rocket 4.4 04:13:30 29° W 04:14:35 32° WNW 04:19:11 10° N
Cosmos 1805 Rocket 4.0 04:10:49 10° NNW 04:15:00 42° W 04:15:00 42° W
ADEOS II 3.6 04:10:49 10° NNE 04:15:32 32° E 04:20:12 10° SSE
Spot 4 Rocket 4.4 04:13:08 10° N 04:18:06 48° WNW 04:19:35 37° WSW
Cosmos 1315 Rocket 2.8 04:14:15 10° NNW 04:18:14 58° W 04:18:35 55° WSW
Cosmos 1153 Rocket 4.5 04:18:10 30° SSW 04:21:26 70° W 04:27:44 10° N
Cosmos 1933 Rocket 4.2 04:17:50 10° N 04:22:14 55° ENE 04:26:36 10° SSE
Cosmos 1726 2.2 04:22:36 52° W 04:22:50 54° W 04:26:30 10° N
Cosmos 292 Rocket 3.9 04:23:48 40° WSW 04:25:17 58° WNW 04:30:04 10° NNE
ADEOS 3.7 04:21:07 10° N 04:26:13 56° WNW 04:28:18 33° SW
Meteor 2-3 Rocket 4.4 04:23:12 10° N 04:28:44 55° ENE 04:34:18 10° SSE
Tiangong 2 3.0 04:30:19 19° SSE 04:30:19 19° SSE 04:32:38 10° ESE
Cosmos 1151 Rocket 3.8 04:28:07 14° SSE 04:31:33 50° E 04:35:43 10° NNE
Cosmos 2100 Rocket 4.0 04:29:51 18° S 04:34:45 86° W 04:41:10 10° N
Cosmos 1802 Rocket 4.1 04:29:14 13° S 04:34:54 77° E 04:41:13 10° N
Cosmos 2369 3.7 04:34:21 10° NNW 04:40:02 86° ENE 04:45:42 10° SSE
Cosmos 1656 4.1 04:34:30 10° NNW 04:40:12 69° ENE 04:45:53 10° SE
CZ-2D R/B 3.5 04:36:19 10° N 04:40:15 56° WNW 04:41:45 33° SW
Cosmos 1892 3.2 04:37:05 10° N 04:40:54 59° E 04:44:41 10° SSE
Okean O Rocket 3.3 04:37:26 10° NNE 04:41:24 31° E 04:45:18 10° SSE
UNKNOWN OBJECT B 3.3 04:38:30 10° N 04:42:25 47° WNW 04:43:54 32° SW
Shenzhou-11 Module 3.2 04:43:41 27° S 04:44:02 28° SSE 04:46:45 10° E
MOZ.5/SAFIR/RUBIN 5/SL-8 4.4 04:42:45 29° SW 04:44:09 35° W 04:48:28 10° NNW
Sich 1 3.9 04:40:52 10° NNW 04:44:43 31° W 04:45:34 28° WSW
In-Cosmos 22 Rocket 4.0 04:39:50 10° NNW 04:45:11 65° W 04:50:25 10° S
Meteor 2-17 Rocket 4.5 04:41:57 21° SSW 04:46:06 62° WNW 04:52:11 10° N
Lacrosse 5 1.8 04:41:49 10° NW 04:46:55 88° SW 04:52:00 10° SE
Meteor 2-10 4.3 04:47:50 20° SSW 04:51:48 61° WNW 04:57:22 10° N
Tsikada Rocket 4.5 04:46:40 10° N 04:52:57 65° E 04:59:16 10° SSE
ATLAS 2AS CENTAUR R/B 4.2 04:48:35 10° NNW 04:56:18 45° NE 05:03:34 10° ESE
Meteor 1-27 4.3 04:51:28 10° S 04:57:07 81° E 05:02:44 10° NNE
Cosmos 2173 Rocket 4.1 04:52:39 15° SSW 04:57:59 64° W 05:04:20 10° N
CZ-4B R/B 3.6 04:56:05 10° NNE 05:00:32 61° E 05:05:01 10° S
USA 161 2.1 05:01:24 23° NW 05:01:24 23° NW 05:02:25 10° NNW
NOSS 3-1 (A) 4.1 04:55:24 10° NW 05:02:53 58° WSW 05:11:05 10° SSE
Cosmos 1470 Rocket 3.9 05:01:52 10° NNW 05:05:59 43° W 05:10:04 10° SSW
Cosmos 1833 Rocket 3.0 05:01:20 10° SSW 05:06:56 68° ESE 05:12:34 10° NNE
Resurs 1-4 Rocket 3.7 05:04:21 10° NNW 05:07:58 19° WNW 05:10:36 14° W
Cosmos 923 Rocket 4.0 05:08:51 12° SSW 05:13:47 80° WNW 05:19:04 10° NNE
Cosmos 1515 Rocket 4.0 05:13:10 15° SW 05:16:30 42° WNW 05:20:44 10° N
Cosmos 1459 Rocket 4.4 05:13:16 13° SW 05:18:28 43° WNW 05:24:14 10° N
ARIANE 5 R/B 4.2 05:15:46 10° NNW 05:19:14 18° WNW 05:22:15 11° W
SL-16 R/B 4.2 05:18:24 12° W 05:19:37 12° W 05:22:03 10° WNW
Cosmos 1300 4.4 05:18:29 15° W 05:19:58 18° WNW 05:22:38 10° NNW
Cosmos 2228 Rocket 3.9 05:16:58 15° SW 05:20:04 33° WNW 05:24:06 10° N
Cosmos 1980 Rocket 2.8 05:15:44 10° NNW 05:21:18 61° ENE 05:26:51 10° SE
MOS 1-B 4.5 05:17:07 10° N 05:22:51 62° WNW 05:28:33 10° SSW
CZ-2D R/B 4.0 05:22:31 10° NNW 05:25:22 15° WNW 05:28:12 10° W
Cosmos 1869 Rocket 3.7 05:23:31 10° N 05:28:02 81° E 05:32:29 10° S
Cosmos 2278 4.1 05:23:39 10° NW 05:28:54 40° WSW 05:34:08 10° S
IRS-1C Rocket 4.3 05:25:41 10° NNE 05:30:58 74° ESE 05:36:13 10° S
Cosmos 1680 Rocket 3.6 05:26:46 10° SSW 05:32:03 72° WNW 05:37:25 10° NNE
Cosmos 1455 2.4 05:32:02 10° SSW 05:35:40 48° WNW 05:39:20 10° N
Cosmos 2084 3.8 05:31:54 10° SSW 05:35:51 56° SE 05:39:39 10° NE
Cosmos 1697 Rocket 2.7 05:30:37 10° NNW 05:36:14 64° WSW 05:41:49 10° S
Cosmos 2112 Rocket 4.1 05:33:59 10° SSW 05:39:17 73° WNW 05:44:40 10° NNE
EO 1 Del DPAF 3.9 05:38:21 10° SSE 05:42:08 61° ENE 05:45:56 10° N
CZ-4B DEB 4.2 05:40:19 10° N 05:45:51 74° WNW 05:51:20 10° SSW
PSLV R/B 3.9 05:42:34 10° N 05:46:46 48° WNW 05:50:54 10° SW
Cosmos 1862 4.3 05:44:04 10° N 05:48:04 53° ENE 05:52:02 10° SSE
BREEZE M DEB (TANK) 4.1 05:48:03 10° SW 05:48:33 10° SSW 05:49:06 10° SSW
Lacrosse 4 Rocket 4.2 05:45:33 10° SSE 05:48:46 20° ESE 05:52:03 10° ENE
Cosmos 2233 Rocket 4.0 05:48:43 10° SSW 05:54:48 71° W 06:00:58 10° N
ADEOS II 2.8 05:50:30 10° N 05:55:15 36° WNW 05:59:59 10° SW
Cosmos 2056 Rocket 3.6 05:50:17 10° NNW 05:55:41 85° WSW 06:01:07 10° SSE
Cosmos 2082 Rocket 2.5 05:50:45 10° SW 05:56:11 51° WNW 06:01:42 10° NNE
BREEZE-M DEB (TANK) 4.2 05:56:11 10° WSW 06:08:02 65° NNW 06:11:32 10° ENE
